4 lipca 2022

Czas Kod Pogoda Temp. Widoczność Sufit Wiatr METAR/SPECI
10:25 pm
V
64 °F 6¼ mi+ - Var Var 2 kt METAR EHVK 042025Z AUTO VRB02KT 9999 FEW057 18/12 Q1020 BLU
9:55 pm
V
64 °F 6¼ mi+ - 300° 300° 3 kt METAR EHVK 041955Z AUTO 30003KT 270V330 9999 SCT068 18/11 Q1020 BLU
9:25 pm
V
66 °F 6¼ mi+ - 310° 310° 3 kt METAR EHVK 041925Z AUTO 31003KT 270V360 9999 NCD 19/11 Q1019 BLU
8:55 pm
V
70 °F 6¼ mi+ - 300° 300° 4 kt METAR EHVK 041855Z AUTO 30004KT 290V010 9999 NCD 21/12 Q1019 BLU
8:25 pm
V
70 °F 6¼ mi+ - 300° 300° 4 kt METAR EHVK 041825Z AUTO 30004KT 270V340 9999 NCD 21/11 Q1019 BLU
7:55 pm
V
72 °F 6¼ mi+ - 300° 300° 5 kt METAR EHVK 041755Z AUTO 30005KT 260V350 9999 NCD 22/12 Q1019 BLU
7:25 pm
V
73 °F 6¼ mi+ - 320° 320° 4 kt METAR EHVK 041725Z AUTO 32004KT 230V350 9999 FEW045 23/12 Q1019 BLU
6:55 pm
V
73 °F 6¼ mi+ - 300° 300° 6 kt METAR EHVK 041655Z AUTO 30006KT 270V350 9999 NCD 23/12 Q1019 BLU
6:25 pm
V
73 °F 6¼ mi+ - 300° 300° 6 kt METAR EHVK 041625Z AUTO 30006KT 260V350 9999 FEW045 SCT050 23/12 Q1019 BLU
5:55 pm
V
72 °F 6¼ mi+ - 280° 280° 6 kt METAR EHVK 041555Z AUTO 28006KT 240V320 9999 FEW047 SCT057 22/12 Q1019 BLU
5:25 pm
V
73 °F 6¼ mi+ - 250° 250° 6 kt METAR EHVK 041525Z AUTO 25006KT 240V350 9999 FEW048 23/12 Q1019 BLU
4:55 pm
V
73 °F 6¼ mi+ 6.700 ft 280° 280° 7 kt METAR EHVK 041455Z AUTO 28007KT 220V320 9999 FEW049 SCT056 BKN067 23/11 Q1019 BLU
4:25 pm
V
72 °F 6¼ mi+ - 270° 270° 8 kt METAR EHVK 041425Z AUTO 27008KT 240V340 9999 SCT048 SCT058 22/11 Q1019 BLU
3:55 pm
V
73 °F 6¼ mi+ - 300° 300° 7 kt METAR EHVK 041355Z AUTO 30007KT 230V330 9999 SCT045 23/12 Q1019 BLU
3:25 pm
V
73 °F 6¼ mi+ - 290° 290° 5 kt METAR EHVK 041325Z AUTO 29005KT 180V340 9999 SCT041 SCT047 23/12 Q1019 BLU
2:55 pm
V
72 °F 6¼ mi+ 4.700 ft 290° 290° 8 kt METAR EHVK 041255Z AUTO 29008KT 220V330 9999 SCT038 SCT043 BKN047 22/13 Q1020 BLU
2:25 pm
V
72 °F 6¼ mi+ - 280° 280° 7 kt METAR EHVK 041225Z AUTO 28007KT 220V350 9999 FEW039 22/11 Q1020 BLU
1:55 pm
V
68 °F 6¼ mi+ 5.200 ft 280° 280° 6 kt METAR EHVK 041155Z AUTO 28006KT 230V320 9999 SCT047 OVC052 20/13 Q1020 BLU
1:25 pm
V
70 °F 6¼ mi+ 4.500 ft 260° 260° 8 kt METAR EHVK 041125Z AUTO 26008KT 200V320 9999 SCT039 BKN045 BKN050 21/12 Q1020 BLU
12:55 pm
V
70 °F 6¼ mi+ 4.300 ft 220° 220° 11 kt METAR EHVK 041055Z AUTO 22011KT 190V290 9999 SCT038 BKN043 BKN051 21/12 Q1020 BLU
12:25 pm
V
70 °F 6¼ mi+ 7.000 ft 220° 220° 11 kt METAR EHVK 041025Z AUTO 22011KT 170V280 9999 FEW037 BKN070 21/12 Q1020 BLU
11:55 am
V
70 °F 6¼ mi+ - 230° 230° 11 kt METAR EHVK 040955Z AUTO 23011KT 200V270 9999 NCD 21/12 Q1020 BLU
11:25 am
V
68 °F 6¼ mi+ - 220° 220° 10 kt METAR EHVK 040925Z AUTO 22010KT 190V280 9999 ////// 20/12 Q1020 BLU
10:55 am
L
68 °F 0 mi - 250° 250° 10 kt METAR EHVK 040855Z AUTO 25010KT 190V290 //// // NCD 20/12 Q1020
10:25 am
L
66 °F 0 mi - 220° 220° 8 kt METAR EHVK 040825Z AUTO 22008KT 180V290 //// // NCD 19/13 Q1020
9:55 am
V
66 °F 6¼ mi+ 5.900 ft 240° 240° 9 kt METAR EHVK 040755Z AUTO 24009KT 180V280 9999 FEW021 BKN059 BKN064 19/13 Q1020 BLU
9:25 am
V
63 °F 6¼ mi+ 6.300 ft 210° 210° 7 kt METAR EHVK 040725Z AUTO 21007KT 190V260 9999 BKN063 17/13 Q1020 BLU
8:55 am
V
63 °F 6¼ mi+ - 230° 230° 8 kt METAR EHVK 040655Z AUTO 23008KT 180V270 9999 SCT065 17/12 Q1020 BLU
8:25 am
V
59 °F 6¼ mi+ 5.700 ft 230° 230° 7 kt METAR EHVK 040625Z AUTO 23007KT 190V270 9999 BKN057 15/12 Q1020 BLU
7:55 am
V
59 °F 6¼ mi+ - 210° 210° 7 kt METAR EHVK 040555Z AUTO 21007KT 170V230 9999 NCD 15/11 Q1020 BLU
7:25 am
V
55 °F 6¼ mi+ - 200° 200° 5 kt METAR EHVK 040525Z AUTO 20005KT 150V220 9999 NCD 13/11 Q1020 BLU
6:55 am
V
55 °F 6¼ mi+ - 200° 200° 4 kt METAR EHVK 040455Z AUTO 20004KT 160V230 9999 FEW290 13/11 Q1020 BLU
6:25 am
V
52 °F 6¼ mi+ - 210° 210° 4 kt METAR EHVK 040425Z AUTO 21004KT 170V240 9999 NCD 11/10 Q1020 BLU
5:55 am
V
50 °F 6¼ mi+ - 210° 210° 2 kt METAR EHVK 040355Z AUTO 21002KT 9999 SCT310 10/10 Q1020 BLU
5:25 am
V
50 °F 6¼ mi+ - Var Var 2 kt METAR EHVK 040325Z AUTO VRB02KT 9999 NCD 10/10 Q1020 BLU
4:55 am
V
50 °F 6¼ mi+ - 210° 210° 1 kt METAR EHVK 040255Z AUTO 21001KT 9999 NCD 10/10 Q1019 BLU
4:25 am
V
52 °F 6¼ mi+ - 210° 210° 1 kt METAR EHVK 040225Z AUTO 21001KT 9999 NCD 11/10 Q1019 BLU
3:55 am
V
52 °F 6¼ mi+ - 210° 210° 1 kt METAR EHVK 040155Z AUTO 21001KT 9999 NCD 11/11 Q1020 BLU
3:25 am
V
54 °F 6¼ mi+ - 220° 220° 2 kt METAR EHVK 040125Z AUTO 22002KT 9999 NCD 12/11 Q1020 BLU
2:55 am
V
54 °F 6¼ mi+ - 220° 220° 2 kt METAR EHVK 040055Z AUTO 22002KT 9999 NCD 12/10 Q1020 BLU
2:25 am
V
54 °F 6¼ mi+ - 220° 220° 3 kt METAR EHVK 040025Z AUTO 22003KT 9999 NCD 12/10 Q1020 BLU RMK CB INFO NOT AVBL
1:55 am
V
52 °F 6¼ mi+ - 230° 230° 3 kt METAR EHVK 032355Z AUTO 23003KT 9999 NCD 11/10 Q1020 BLU
1:25 am
V
54 °F 6¼ mi+ - 250° 250° 3 kt METAR EHVK 032325Z AUTO 25003KT 9999 NCD 12/10 Q1020 BLU
12:55 am
V
55 °F 6¼ mi+ - 270° 270° 2 kt METAR EHVK 032255Z AUTO 27002KT 9999 FEW270 13/11 Q1020 BLU
12:25 am
V
57 °F 6¼ mi+ - 280° 280° 3 kt METAR EHVK 032225Z AUTO 28003KT 9999 NCD 14/10 Q1020 BLU

3 lipca 2022

Czas Kod Pogoda Temp. Widoczność Sufit Wiatr METAR/SPECI
11:55 pm
V
57 °F 6¼ mi+ - 270° 270° 3 kt METAR EHVK 032155Z AUTO 27003KT 270V340 9999 NCD 14/10 Q1020 BLU
11:25 pm
V
59 °F 6¼ mi+ - 270° 270° 3 kt METAR EHVK 032125Z AUTO 27003KT 9999 NCD 15/10 Q1020 BLU
10:55 pm
V
59 °F 6¼ mi+ - 280° 280° 4 kt METAR EHVK 032055Z AUTO 28004KT 240V300 9999 SCT034 15/09 Q1020 BLU
10:25 pm
V
61 °F 6¼ mi+ - 280° 280° 4 kt METAR EHVK 032025Z AUTO 28004KT 9999 NCD 16/09 Q1019 BLU
9:55 pm
V
63 °F 6¼ mi+ - 280° 280° 5 kt METAR EHVK 031955Z AUTO 28005KT 260V320 9999 NCD 17/09 Q1019 BLU
9:25 pm
V
64 °F 6¼ mi+ - 280° 280° 6 kt METAR EHVK 031925Z AUTO 28006KT 250V330 9999 NCD 18/10 Q1019 BLU
8:55 pm
V
66 °F 6¼ mi+ - 290° 290° 7 kt METAR EHVK 031855Z AUTO 29007KT 260V330 9999 NCD 19/09 Q1019 BLU
8:25 pm
V
68 °F 6¼ mi+ - 270° 270° 7 kt METAR EHVK 031825Z AUTO 27007KT 240V330 9999 NCD 20/09 Q1019 BLU
7:55 pm
V
68 °F 6¼ mi+ - 270° 270° 9 kt METAR EHVK 031755Z AUTO 27009KT 220V300 9999 NCD 20/09 Q1019 BLU
7:25 pm
V
68 °F 6¼ mi+ - 270° 270° 8 kt METAR EHVK 031725Z AUTO 27008KT 240V340 9999 NCD 20/10 Q1019 BLU
6:55 pm
V
70 °F 6¼ mi+ - 280° 280° 10 kt METAR EHVK 031655Z AUTO 28010KT 220V320 9999 SCT074 21/10 Q1019 BLU
6:25 pm
V
70 °F 6¼ mi+ - 280° 280° 9 kt METAR EHVK 031625Z AUTO 28009KT 230V340 9999 SCT040 21/11 Q1018 BLU
5:55 pm
V
70 °F 6¼ mi+ - 270° 270° 10 kt METAR EHVK 031555Z AUTO 27010KT 240V320 9999 FEW039 SCT078 21/11 Q1018 BLU
5:25 pm
V
70 °F 6¼ mi+ - 280° 280° 8 kt METAR EHVK 031525Z AUTO 28008KT 240V340 9999 NCD 21/12 Q1018 BLU
4:55 pm
V
70 °F 6¼ mi+ - 280° 280° 10 kt METAR EHVK 031455Z AUTO 28010KT 230V340 9999 FEW044 21/12 Q1018 BLU
4:25 pm
V
72 °F 6¼ mi+ - 270° 270° 10 kt METAR EHVK 031425Z AUTO 27010KT 190V310 9999 FEW046 SCT052 22/11 Q1018 BLU
3:55 pm
V
72 °F 6¼ mi+ 6.300 ft 250° 250° 13 kt METAR EHVK 031355Z AUTO 25013KT 210V290 9999 FEW046 SCT052 BKN063 22/10 Q1018 BLU
3:25 pm
V
73 °F 6¼ mi+ 8.200 ft 230° 230° 11 kt METAR EHVK 031325Z AUTO 23011KT 170V270 9999 FEW068 SCT077 BKN082 23/12 Q1018 BLU
2:55 pm
V
70 °F 6¼ mi+ 7.100 ft 260° 260° 11 kt METAR EHVK 031255Z AUTO 26011KT 210V300 9999 FEW042 SCT057 BKN071 21/11 Q1018 BLU
2:25 pm
V
70 °F 6¼ mi+ 3.700 ft 270° 270° 8 kt METAR EHVK 031225Z AUTO 27008KT 200V310 9999 BKN037 BKN043 21/12 Q1018 BLU
1:55 pm
V
70 °F 6¼ mi+ 6.500 ft 240° 240° 10 kt METAR EHVK 031155Z AUTO 24010KT 180V290 9999 FEW041 BKN065 OVC070 21/11 Q1018 BLU
1:25 pm
V
70 °F 6¼ mi+ 4.000 ft 240° 240° 11 kt METAR EHVK 031125Z AUTO 24011KT 190V270 9999 SCT033 BKN040 BKN047 21/13 Q1018 BLU
12:55 pm
M
70 °F 6¼ mi+ 2.900 ft 270° 270° 6 kt METAR EHVK 031055Z AUTO 27006KT 160V330 9999 BKN029 BKN033 BKN038 21/14 Q1018 BLU
12:25 pm
V
72 °F 6¼ mi+ - 240° 240° 10 kt METAR EHVK 031025Z AUTO 24010KT 200V290 9999 FEW033 22/13 Q1018 BLU
11:55 am
V
72 °F 6¼ mi+ - 230° 230° 11 kt METAR EHVK 030955Z AUTO 23011KT 190V270 9999 FEW031 22/14 Q1018 BLU
11:25 am
V
70 °F 6¼ mi+ - 230° 230° 10 kt METAR EHVK 030925Z AUTO 23010KT 190V280 9999 FEW030 21/13 Q1018 BLU
10:55 am
V
70 °F 6¼ mi+ - 230° 230° 9 kt METAR EHVK 030855Z AUTO 23009KT 200V300 9999 NCD 21/14 Q1018 BLU
10:25 am
V
68 °F 6¼ mi+ - 240° 240° 7 kt METAR EHVK 030825Z AUTO 24007KT 190V310 9999 FEW062 20/13 Q1018 BLU
9:55 am
V
66 °F 6¼ mi+ - 240° 240° 7 kt METAR EHVK 030755Z AUTO 24007KT 190V310 9999 FEW069 19/13 Q1018 BLU
9:25 am
V
66 °F 6¼ mi+ - 260° 260° 5 kt METAR EHVK 030725Z AUTO 26005KT 210V300 9999 NCD 19/14 Q1018 BLU
8:55 am
V
66 °F 6¼ mi+ - 250° 250° 7 kt METAR EHVK 030655Z AUTO 25007KT 210V300 9999 FEW069 19/14 Q1018 BLU
8:25 am
V
64 °F 6¼ mi+ - 260° 260° 7 kt METAR EHVK 030625Z AUTO 26007KT 220V310 9999 NCD 18/13 Q1018 BLU
7:55 am
V
63 °F 6¼ mi+ 8.100 ft 240° 240° 6 kt METAR EHVK 030555Z AUTO 24006KT 210V290 9999 SCT074 BKN081 BKN087 17/12 Q1017 BLU
7:25 am
V
61 °F 6¼ mi+ 7.600 ft 230° 230° 4 kt METAR EHVK 030525Z AUTO 23004KT 9999 SCT068 BKN076 BKN083 16/13 Q1017 BLU
6:55 am
V
57 °F 6¼ mi+ 22.000 ft 240° 240° 5 kt METAR EHVK 030455Z AUTO 24005KT 9999 OVC220 14/12 Q1017 BLU
6:25 am
V
57 °F 6¼ mi+ 21.000 ft 240° 240° 4 kt METAR EHVK 030425Z AUTO 24004KT 9999 OVC210 14/12 Q1017 BLU
5:55 am
V
55 °F 6¼ mi+ 30.000 ft 250° 250° 3 kt METAR EHVK 030355Z AUTO 25003KT 9999 OVC300 13/12 Q1017 BLU
5:25 am
V
55 °F 6¼ mi+ - 230° 230° 3 kt METAR EHVK 030325Z AUTO 23003KT 9999 NCD 13/12 Q1017 BLU
4:55 am
V
57 °F 6¼ mi+ - 270° 270° 3 kt METAR EHVK 030255Z AUTO 27003KT 220V290 9999 NCD 14/12 Q1017 BLU
4:25 am
V
59 °F 6¼ mi+ - 310° 310° 3 kt METAR EHVK 030225Z AUTO 31003KT 9999 NCD 15/12 Q1017 BLU
3:55 am
V
59 °F 6¼ mi+ - 290° 290° 5 kt METAR EHVK 030155Z AUTO 29005KT 260V320 9999 NCD 15/13 Q1017 BLU
3:25 am
V
57 °F 6¼ mi+ - 270° 270° 5 kt METAR EHVK 030125Z AUTO 27005KT 140V280 9999 NCD 14/12 Q1017 BLU
2:55 am
V
57 °F 6¼ mi+ - Var Var 1 kt METAR EHVK 030055Z AUTO VRB01KT 9999 NCD 14/12 Q1017 BLU
2:25 am
V
57 °F 6¼ mi+ - Var 000° 0 kt METAR EHVK 030025Z AUTO 00000KT 9999 SCT120 14/13 Q1017 BLU
1:55 am
V
57 °F 6¼ mi+ 12.000 ft Var 000° 0 kt METAR EHVK 022355Z AUTO 00000KT 9999 OVC120 14/13 Q1017 BLU
1:25 am
V
57 °F 6¼ mi+ 13.000 ft Var 000° 0 kt METAR EHVK 022325Z AUTO 00000KT 9999 BKN130 14/13 Q1017 BLU
12:55 am
V
59 °F 6¼ mi+ - Var 000° 0 kt METAR EHVK 022255Z AUTO 00000KT 9999 SCT140 15/12 Q1017 BLU
12:25 am
V
59 °F 6¼ mi+ - 040° 040° 1 kt METAR EHVK 022225Z AUTO 04001KT 9999 SCT140 15/13 Q1017 BLU
12:18 am
M
61 °F 3⅛ mi - 040° 040° 1 kt METAR EHVK 022218Z AUTO 04001KT 5000 BR NCD 16/13 Q1017 WHT
12:07 am
V
61 °F 6¼ mi+ - 040° 040° 1 kt METAR EHVK 022207Z AUTO 04001KT 9999 FEW140 16/13 Q1017 BLU
12:05 am
I
61 °F 1⅛ mi - 040° 040° 1 kt METAR EHVK 022205Z AUTO 04001KT 1800 HZ SCT140 16/13 Q1017 YLO

2 lipca 2022

Czas Kod Pogoda Temp. Widoczność Sufit Wiatr METAR/SPECI
11:55 pm
V
61 °F 6¼ mi+ - 040° 040° 1 kt METAR EHVK 022155Z AUTO 04001KT 9999 NCD 16/13 Q1017 BLU
11:25 pm
V
63 °F 6¼ mi+ - Var 000° 0 kt METAR EHVK 022125Z AUTO 00000KT 9999 NCD 17/13 Q1018 BLU
10:55 pm
V
63 °F 6¼ mi+ 20.000 ft 040° 040° 1 kt METAR EHVK 022055Z AUTO 04001KT 9999 OVC200 17/13 Q1018 BLU
10:25 pm
V
64 °F 6¼ mi+ 20.000 ft 310° 310° 2 kt METAR EHVK 022025Z AUTO 31002KT 9999 OVC200 18/13 Q1018 BLU
9:55 pm
V
68 °F 6¼ mi+ 14.000 ft Var Var 1 kt METAR EHVK 021955Z AUTO VRB01KT 9999 OVC140 20/12 Q1017 BLU
9:25 pm
V
70 °F 6¼ mi+ 13.000 ft Var Var 1 kt METAR EHVK 021925Z AUTO VRB01KT 9999 OVC130 21/12 Q1018 BLU
8:55 pm
V
72 °F 6¼ mi+ 14.000 ft 300° 300° 3 kt METAR EHVK 021855Z AUTO 30003KT 9999 OVC140 22/11 Q1017 BLU
8:25 pm
V
73 °F 6¼ mi+ 14.000 ft 280° 280° 3 kt METAR EHVK 021825Z AUTO 28003KT 250V310 9999 OVC140 23/11 Q1018 BLU
7:55 pm
V
73 °F 6¼ mi+ 13.000 ft 270° 270° 4 kt METAR EHVK 021755Z AUTO 27004KT 250V320 9999 OVC130 23/10 Q1018 BLU
7:25 pm
V
73 °F 6¼ mi+ 13.000 ft 280° 280° 5 kt METAR EHVK 021725Z AUTO 28005KT 250V330 9999 SCT068 OVC130 23/11 Q1018 BLU
6:55 pm
V
73 °F 6¼ mi+ 14.000 ft 250° 250° 7 kt METAR EHVK 021655Z AUTO 25007KT 190V270 9999 FEW065 OVC140 23/10 Q1018 BLU
6:25 pm
V
75 °F 6¼ mi+ - 240° 240° 8 kt METAR EHVK 021625Z AUTO 24008KT 180V290 9999 SCT068 SCT210 24/10 Q1018 BLU
5:55 pm
V
77 °F 6¼ mi+ 14.000 ft 220° 220° 7 kt METAR EHVK 021555Z AUTO 22007KT 120V290 9999 SCT064 BKN140 25/09 Q1018 BLU
5:25 pm
V
77 °F 6¼ mi+ 6.300 ft 230° 230° 9 kt METAR EHVK 021525Z AUTO 23009KT 110V270 9999 BKN063 BKN150 25/10 Q1019 BLU
4:55 pm
V
75 °F 6¼ mi+ 6.400 ft 170° 170° 5 kt METAR EHVK 021455Z AUTO 17005KT 140V250 9999 BKN064 BKN069 OVC150 24/10 Q1019 BLU
Starsze dane

Pobierz naszą aplikację

Łatwy dostęp do całej pogody lotniczej na telefonie komórkowym i tablecie.
Z wieloma funkcjami niedostępnymi na stronie internetowej, takimi jak wsparcie offline i osobista lista lotnisk.

My i osoby trzecie śledzimy twoje zachowanie w internecie na naszej stronie za pomocą plików cookie. Jeśli kontynuujesz, zakładamy, że zgadzasz się z naszą polityką plików cookie. Dowiedz się więcej